Weather History for KACQ - October, 2011

Change the Weather History Date:

Saturday, October 15, 2011

  Actual Average (KFBL) Record (KFBL)
Temperature  
Mean Temperature 47 °F -  
Max Temperature 59 °F 59 °F 86 °F (1968)
Min Temperature 35 °F 37 °F 21 °F (2006)
Degree Days  
Heating Degree Days 18    
Moisture  
Dew Point 34 °F    
Average Humidity 63    
Maximum Humidity 87    
Minimum Humidity 34    
Precipitation  
Precipitation 0.00 in - - ()
Sea Level Pressure  
Sea Level Pressure 29.90 in    
Wind  
Wind Speed 11 mph (West)    
Max Wind Speed 21 mph    
Max Gust Speed 26 mph    
Visibility 10 miles    
Events Rain    
Averages and records for this station are not official NWS values.
T = Trace of Precipitation, MM = Missing Value Source: NWS Daily Summary

Daily Weather History Graph

Daily Weather History Graph

Search for Another Location

Airport or City:

Trip Planner

Search our weather history database for the weather conditions in past years. The results will help you decide how hot, cold, wet, or windy it might be!

Date:

Astronomy

Oct. 15, 2011 Rise Set
Actual Time 7:28 AM CDT 6:30 PM CDT
Civil Twilight 6:59 AM CDT 6:59 PM CDT
Nautical Twilight 6:25 AM CDT 7:33 PM CDT
Astronomical Twilight 5:52 AM CDT 8:06 PM CDT
Moon 8:19 PM CDT (10/15) 11:01 AM CDT (10/15)
Length of Visible Light 12h 00m
Length of Day
11h 02m
Waning Gibbous, 89% of the Moon is Illuminated
Oct 15
Waning Gibbous
Oct 19
Last Quarter
Oct 26
New
Nov 2
First Quarter
Nov 10
Full

Hourly Weather History & Observations

Time (CDT) Temp. Windchill Dew Point Humidity Pressure Visibility Wind Dir Wind Speed Gust Speed Precip Events Conditions
12:15 AM 44.6 °F 39.2 °F 33.8 °F 66% 29.88 in 10.0 mi West 10.4 mph - N/A   Clear
12:35 AM 42.8 °F 37.5 °F 33.8 °F 70% 29.87 in 10.0 mi West 9.2 mph - N/A   Clear
1:15 AM 42.8 °F 38.0 °F 33.8 °F 70% 29.88 in 10.0 mi West 8.1 mph - N/A   Clear
1:35 AM 39.2 °F 34.2 °F 32.0 °F 75% 29.88 in 10.0 mi WSW 6.9 mph - N/A   Clear
1:55 AM 39.2 °F 34.2 °F 33.8 °F 81% 29.88 in 10.0 mi WSW 6.9 mph - N/A   Clear
2:15 AM 39.2 °F 33.6 °F 33.8 °F 81% 29.89 in 10.0 mi West 8.1 mph - N/A   Clear
2:34 AM 42.8 °F 36.6 °F 35.6 °F 76% 29.88 in 10.0 mi West 11.5 mph - N/A   Clear
2:55 AM 42.8 °F 38.0 °F 35.6 °F 76% 29.89 in 10.0 mi West 8.1 mph - N/A   Clear
3:15 AM 39.2 °F 33.6 °F 33.8 °F 81% 29.89 in 10.0 mi WSW 8.1 mph - N/A   Clear
3:35 AM 39.2 °F 33.6 °F 33.8 °F 81% 29.89 in 10.0 mi West 8.1 mph - N/A   Clear
3:55 AM 39.2 °F 33.0 °F 33.8 °F 81% 29.90 in 10.0 mi West 9.2 mph - N/A   Clear
4:15 AM 39.2 °F 33.6 °F 33.8 °F 81% 29.90 in 10.0 mi West 8.1 mph - N/A   Clear
4:35 AM 37.4 °F 31.4 °F 33.8 °F 87% 29.90 in 10.0 mi West 8.1 mph - N/A   Clear
4:55 AM 39.2 °F 33.6 °F 33.8 °F 81% 29.90 in 10.0 mi West 8.1 mph - N/A   Clear
5:15 AM 37.4 °F 31.4 °F 33.8 °F 87% 29.91 in 10.0 mi West 8.1 mph - N/A   Clear
5:35 AM 35.6 °F 28.6 °F 32.0 °F 87% 29.91 in 10.0 mi West 9.2 mph - N/A   Clear
5:55 AM 35.6 °F 28.6 °F 32.0 °F 87% 29.92 in 10.0 mi WSW 9.2 mph - N/A   Clear
6:15 AM 35.6 °F 28.6 °F 32.0 °F 87% 29.92 in 10.0 mi West 9.2 mph - N/A   Clear
6:35 AM 35.6 °F 29.2 °F 32.0 °F 87% 29.92 in 10.0 mi West 8.1 mph - N/A   Clear
6:55 AM 35.6 °F 28.6 °F 32.0 °F 87% 29.92 in 10.0 mi West 9.2 mph - N/A   Clear
7:15 AM 35.6 °F 29.2 °F 32.0 °F 87% 29.92 in 10.0 mi West 8.1 mph - N/A   Clear
7:35 AM 35.6 °F 28.0 °F 32.0 °F 87% 29.93 in 10.0 mi West 10.4 mph - N/A   Clear
8:15 AM 37.4 °F 30.8 °F 33.8 °F 87% 29.93 in 10.0 mi West 9.2 mph - N/A   Clear
8:35 AM 39.2 °F 32.0 °F 33.8 °F 81% 29.94 in 10.0 mi West 11.5 mph - N/A   Clear
8:55 AM 42.8 °F 37.0 °F 35.6 °F 76% 29.94 in 10.0 mi West 10.4 mph - N/A   Clear
9:15 AM 42.8 °F 36.6 °F 35.6 °F 76% 29.94 in 10.0 mi West 11.5 mph - N/A   Clear
9:35 AM 42.8 °F 35.8 °F 35.6 °F 76% 29.95 in 10.0 mi West 13.8 mph - N/A   Clear
9:55 AM 44.6 °F 37.8 °F 35.6 °F 71% 29.95 in 10.0 mi West 15.0 mph - N/A   Clear
10:15 AM 44.6 °F 37.4 °F 35.6 °F 71% 29.95 in 10.0 mi West 16.1 mph - N/A   Clear
10:35 AM 46.4 °F 40.1 °F 35.6 °F 66% 29.95 in 10.0 mi WSW 15.0 mph - N/A   Clear
10:55 AM 50.0 °F - 37.4 °F 62% 29.95 in 10.0 mi West 15.0 mph - N/A   Clear
11:15 AM 51.8 °F - 37.4 °F 58% 29.95 in 10.0 mi West 16.1 mph - N/A   Clear
11:35 AM 51.8 °F - 35.6 °F 54% 29.93 in 10.0 mi West 15.0 mph 21.9 mph N/A   Clear
11:55 AM 53.6 °F - 33.8 °F 47% 29.93 in 10.0 mi West 19.6 mph 23.0 mph N/A   Clear
12:15 PM 53.6 °F - 33.8 °F 47% 29.93 in 10.0 mi West 17.3 mph - N/A   Clear
12:35 PM 57.2 °F - 33.8 °F 41% 29.92 in 10.0 mi West 19.6 mph 26.5 mph N/A   Clear
12:55 PM 57.2 °F - 32.0 °F 38% 29.92 in 10.0 mi WNW 20.7 mph 25.3 mph N/A   Clear
1:15 PM 57.2 °F - 32.0 °F 38% 29.91 in 10.0 mi West 17.3 mph 26.5 mph N/A   Clear
1:35 PM 57.2 °F - 32.0 °F 38% 29.90 in 10.0 mi West 16.1 mph 20.7 mph N/A   Clear
1:55 PM 57.2 °F - 32.0 °F 38% 29.90 in 10.0 mi WNW 19.6 mph 25.3 mph N/A   Clear
2:15 PM 59.0 °F - 32.0 °F 36% 29.88 in 10.0 mi West 18.4 mph 25.3 mph N/A   Clear
2:35 PM 57.2 °F - 32.0 °F 38% 29.88 in 10.0 mi West 16.1 mph 19.6 mph N/A   Scattered Clouds
2:55 PM 57.2 °F - 32.0 °F 38% 29.88 in 10.0 mi West 13.8 mph 23.0 mph N/A   Mostly Cloudy
3:15 PM 57.2 °F - 32.0 °F 38% 29.88 in 10.0 mi WSW 15.0 mph - N/A   Scattered Clouds
3:35 PM 57.2 °F - 32.0 °F 38% 29.86 in 10.0 mi WSW 13.8 mph - N/A   Scattered Clouds
3:55 PM 59.0 °F - 30.2 °F 34% 29.86 in 10.0 mi West 18.4 mph 26.5 mph N/A   Mostly Cloudy
4:15 PM 59.0 °F - 30.2 °F 34% 29.85 in 10.0 mi West 17.3 mph - N/A   Scattered Clouds
4:35 PM 59.0 °F - 30.2 °F 34% 29.86 in 10.0 mi West 12.7 mph - N/A   Clear
4:55 PM 57.2 °F - 30.2 °F 36% 29.85 in 10.0 mi West 11.5 mph - N/A   Clear
5:15 PM 57.2 °F - 30.2 °F 36% 29.85 in 10.0 mi West 12.7 mph - N/A   Scattered Clouds
5:35 PM 57.2 °F - 30.2 °F 36% 29.85 in 10.0 mi West 11.5 mph - N/A   Scattered Clouds
5:55 PM 57.2 °F - 32.0 °F 38% 29.86 in 10.0 mi West 9.2 mph - N/A   Mostly Cloudy
6:15 PM 55.4 °F - 32.0 °F 41% 29.86 in 10.0 mi West 5.8 mph - N/A   Overcast
6:36 PM 55.4 °F - 32.0 °F 41% 29.86 in 10.0 mi West 11.5 mph 17.3 mph N/A   Overcast
7:15 PM 51.8 °F - 35.6 °F 54% 29.89 in 10.0 mi NW 11.5 mph - N/A Rain Light Rain
7:35 PM 50.0 °F - 37.4 °F 62% 29.88 in 10.0 mi NNW 11.5 mph - N/A Rain Rain
7:55 PM 50.0 °F - 41.0 °F 71% 29.89 in 10.0 mi NNW 10.4 mph - N/A Rain Light Rain
8:15 PM 46.4 °F 42.4 °F 39.2 °F 76% 29.88 in 10.0 mi North 8.1 mph - N/A Rain Light Rain
8:35 PM 46.4 °F 42.4 °F 39.2 °F 76% 29.86 in 10.0 mi North 8.1 mph - N/A Rain Light Rain
8:55 PM 46.4 °F 42.9 °F 39.2 °F 76% 29.85 in 10.0 mi North 6.9 mph - N/A Rain Light Rain
9:15 PM 46.4 °F 43.5 °F 39.2 °F 76% 29.85 in 10.0 mi North 5.8 mph - N/A   Overcast
9:56 PM 46.4 °F - 37.4 °F 71% 29.86 in 10.0 mi Calm Calm - N/A   Mostly Cloudy
10:15 PM 46.4 °F - 37.4 °F 71% 29.86 in 10.0 mi Calm Calm - N/A   Scattered Clouds
10:35 PM 44.6 °F - 39.2 °F 81% 29.86 in 10.0 mi Calm Calm - N/A   Mostly Cloudy
11:15 PM 44.6 °F 42.2 °F 39.2 °F 81% 29.88 in 10.0 mi NNW 4.6 mph - N/A   Overcast
11:35 PM 46.4 °F 45.2 °F 37.4 °F 71% 29.88 in 10.0 mi NNW 3.5 mph - N/A   Overcast
11:55 PM 46.4 °F - 37.4 °F 71% 29.87 in 10.0 mi Calm Calm - N/A Rain Light Rain